HB9HFD-13 Weather Reports


Display with metric or nautical units.
time (UTC)temp
F
wind
direction
speed
MPH
gust
MPH
rain 1hr
in
rain 24hr
in
rain mn
in
humidity
%
barometer
mb
20260505034922 51 301 0.0 1.0 0.08 0.63 0.33 95 1009.2
20260505034421 51 302 0.0 0.0 0.07 0.62 0.32 95 1009.4
20260505033921 51 301 0.0 0.0 0.06 0.60 0.30 95 1009.4
20260505033421 51 301 0.0 0.0 0.06 0.59 0.29 95 1009.4
20260505032921 51 301 0.0 1.0 0.05 0.58 0.28 95 1009.4
20260505032421 51 301 0.0 0.0 0.07 0.58 0.28 95 1009.4
20260505031920 51 301 0.0 0.0 0.07 0.57 0.27 95 1009.4
20260505031420 51 301 0.0 0.0 0.07 0.56 0.26 95 1009.5
20260505030920 51 301 0.0 0.0 0.09 0.56 0.26 95 1009.4
20260505030419 51 301 0.0 0.0 0.10 0.56 0.26 95 1009.3
20260505025919 51 301 0.0 0.0 0.11 0.56 0.26 95 1009.3
20260505025419 51 301 0.0 0.0 0.11 0.55 0.25 95 1009.4
20260505024918 51 301 0.0 0.0 0.12 0.55 0.25 95 1009.4
20260505024418 51 301 0.0 0.0 0.13 0.55 0.25 95 1009.4
20260505023918 51 301 0.0 0.0 0.13 0.54 0.24 95 1009.3
20260505023418 51 301 0.0 0.0 0.13 0.53 0.23 95 1009.4
20260505022917 51 301 0.0 0.0 0.14 0.53 0.23 95 1009.5
20260505022417 51 301 0.0 0.0 0.13 0.51 0.21 95 1009.6
20260505021917 51 301 0.0 0.0 0.12 0.50 0.20 95 1009.5
20260505021417 51 301 0.0 0.0 0.12 0.49 0.19 95 1009.5
20260505020916 51 301 0.0 0.0 0.12 0.47 0.17 95 1009.5
20260505020416 51 301 0.0 0.0 0.12 0.46 0.16 95 1009.6
20260505015916 51 301 0.0 0.0 0.12 0.45 0.15 95 1009.6
20260505015416 51 301 0.0 0.0 0.12 0.44 0.14 95 1009.6
20260505014915 51 301 0.0 0.0 0.11 0.43 0.13 95 1009.7
20260505014415 51 301 0.0 0.0 0.11 0.42 0.12 95 1009.8
20260505013915 51 301 0.0 0.0 0.10 0.41 0.11 95 1009.8
20260505013414 51 301 0.0 0.0 0.09 0.40 0.10 95 1009.8
20260505012914 51 301 0.0 0.0 0.09 0.39 0.09 95 1009.9
20260505012414 51 301 0.0 0.0 0.08 0.38 0.08 95 1009.9
20260505011914 51 301 0.0 0.0 0.08 0.38 0.08 95 1010.0
20260505011413 51 301 0.0 0.0 0.07 0.37 0.07 95 1010.1
20260505010913 51 301 0.0 0.0 0.05 0.35 0.05 95 1010.3
20260505010413 51 301 0.0 0.0 0.04 0.34 0.04 95 1010.3
20260505005913 51 301 0.0 0.0 0.03 0.33 0.03 95 1010.4
20260505005412 51 301 0.0 0.0 0.02 0.32 0.02 95 1010.3
20260505004912 51 302 0.0 0.0 0.02 0.32 0.02 95 1010.3
20260505004412 51 301 0.0 0.0 0.01 0.31 0.01 95 1010.3
20260505003911 51 301 0.0 0.0 0.01 0.31 0.01 95 1010.3
20260505003411 51 301 0.0 1.0 0.01 0.31 0.01 95 1010.3
20260505002911 51 301 0.0 1.0 0.00 0.30 0.00 95 1010.3
20260505002411 51 301 0.0 0.0 0.00 0.30 0.00 95 1010.2
20260505001910 51 301 0.0 0.0 0.00 0.30 0.00 95 1010.2
20260505001410 50 301 0.0 0.0 0.00 0.30 0.00 95 1010.2
20260505000910 50 301 0.0 0.0 0.00 0.30 0.00 95 1010.3
20260505000410 50 301 0.0 0.0 0.00 0.30 0.00 95 1010.2
20260504235909 50 302 0.0 0.0 0.00 0.30 0.00 95 1010.3
20260504235409 50 301 0.0 0.0 0.00 0.30 0.00 95 1010.3
20260504234909 50 301 0.0 0.0 0.00 0.30 0.00 95 1010.2
20260504234409 50 301 0.0 0.0 0.00 0.30 0.00 95 1010.1
20260504233908 50 301 0.0 0.0 0.00 0.30 0.00 95 1010.1
20260504233408 50 302 0.0 0.0 0.00 0.30 0.00 95 1010.0
20260504232908 50 301 0.0 0.0 0.00 0.30 0.00 95 1010.2
20260504232407 50 301 0.0 0.0 0.00 0.30 0.00 95 1010.2
20260504231907 50 301 0.0 0.0 0.00 0.30 0.00 95 1010.2
20260504231407 50 301 0.0 0.0 0.00 0.30 0.00 95 1010.3
20260504230907 50 301 0.0 0.0 0.00 0.30 0.00 95 1010.3
20260504230407 50 302 0.0 0.0 0.00 0.30 0.00 95 1010.3
20260504225906 50 302 0.0 0.0 0.00 0.30 0.00 95 1010.3
20260504225406 50 301 0.0 0.0 0.00 0.30 0.00 95 1010.3
20260504224906 50 301 0.0 0.0 0.00 0.30 0.00 95 1010.4
20260504224405 50 301 0.0 0.0 0.00 0.30 0.00 95 1010.4
20260504223905 50 301 0.0 0.0 0.00 0.30 0.00 95 1010.4
20260504223405 50 301 0.0 0.0 0.00 0.30 0.00 95 1010.4
20260504222905 50 301 0.0 0.0 0.00 0.30 0.00 95 1010.4
20260504222404 50 301 0.0 0.0 0.00 0.30 0.00 95 1010.4
20260504221904 50 301 0.0 0.0 0.00 0.30 0.00 95 1010.5
20260504221404 50 301 0.0 0.0 0.00 0.30 0.00 95 1010.5
20260504220903 50 301 0.0 0.0 0.00 0.30 0.00 95 1010.5
20260504220403 50 301 0.0 0.0 0.00 0.30 0.00 95 1010.6
20260504215903 51 301 0.0 0.0 0.00 0.30 0.30 95 1010.5
20260504215403 51 302 0.0 0.0 0.00 0.30 0.30 95 1010.6
20260504214903 51 301 0.0 0.0 0.00 0.30 0.30 95 1010.5
20260504214402 51 301 0.0 0.0 0.00 0.30 0.30 95 1010.6
20260504213902 51 301 0.0 0.0 0.00 0.30 0.30 95 1010.8
20260504213402 51 302 0.0 0.0 0.00 0.30 0.30 95 1010.9
20260504212901 51 301 0.0 0.0 0.00 0.30 0.30 95 1010.9
20260504212401 51 301 0.0 0.0 0.00 0.30 0.30 95 1011.0
20260504211901 51 301 0.0 0.0 0.00 0.30 0.30 95 1010.9
20260504211401 51 301 0.0 0.0 0.00 0.30 0.30 95 1011.0
20260504210900 51 301 0.0 0.0 0.00 0.30 0.30 95 1010.9
20260504210400 51 301 0.0 0.0 0.00 0.30 0.30 95 1010.9
20260504205900 51 301 0.0 0.0 0.00 0.30 0.30 95 1010.9
20260504205359 51 301 0.0 0.0 0.00 0.30 0.30 95 1011.0
20260504204859 51 301 0.0 0.0 0.00 0.30 0.30 94 1011.1
20260504204359 51 301 0.0 0.0 0.00 0.30 0.30 94 1011.0
20260504203859 51 302 0.0 0.0 0.00 0.30 0.30 94 1010.9
20260504203358 51 301 0.0 0.0 0.00 0.30 0.30 94 1011.0
20260504202858 51 301 0.0 0.0 0.00 0.30 0.30 94 1011.1
20260504202358 51 301 0.0 0.0 0.00 0.30 0.30 94 1011.1
20260504201858 51 302 0.0 0.0 0.00 0.30 0.30 94 1011.2
20260504201357 51 301 0.0 0.0 0.00 0.30 0.30 94 1011.3
20260504200857 51 301 0.0 0.0 0.00 0.30 0.30 94 1011.4
20260504200357 51 301 0.0 0.0 0.00 0.30 0.30 94 1011.4
20260504195856 52 301 0.0 0.0 0.00 0.30 0.30 94 1011.5
20260504195356 52 301 0.0 0.0 0.01 0.30 0.30 94 1011.3
20260504194856 52 301 0.0 0.0 0.02 0.30 0.30 94 1011.4
20260504194356 52 301 0.0 0.0 0.02 0.30 0.30 94 1011.4
20260504193855 52 301 0.0 0.0 0.02 0.30 0.30 94 1011.4
20260504193355 52 301 0.0 0.0 0.02 0.30 0.30 94 1011.4
20260504192855 52 301 0.0 0.0 0.02 0.30 0.30 94 1011.5
20260504192355 52 301 0.0 0.0 0.02 0.30 0.30 94 1011.6
20260504191854 52 301 0.0 0.0 0.02 0.30 0.30 94 1011.5
20260504191354 52 301 0.0 0.0 0.02 0.30 0.30 93 1011.4
20260504190854 52 301 0.0 0.0 0.02 0.30 0.30 93 1011.6
20260504190354 52 302 0.0 0.0 0.02 0.30 0.30 93 1011.7
20260504185853 52 301 0.0 0.0 0.02 0.30 0.30 93 1011.6
20260504185353 52 301 0.0 0.0 0.01 0.29 0.29 93 1011.7
20260504184853 52 301 0.0 0.0 0.00 0.28 0.28 93 1011.7
20260504184353 52 301 0.0 0.0 0.00 0.28 0.28 93 1011.7
20260504183852 52 301 0.0 0.0 0.00 0.28 0.28 93 1011.7
20260504183352 52 301 0.0 0.0 0.00 0.28 0.28 93 1011.7
20260504182852 53 301 0.0 0.0 0.00 0.28 0.28 93 1011.7
20260504182351 53 301 0.0 0.0 0.00 0.28 0.28 93 1011.8
20260504181851 53 302 0.0 0.0 0.00 0.28 0.28 93 1011.8
20260504181351 53 301 0.0 0.0 0.00 0.28 0.28 92 1011.8
20260504180851 53 301 0.0 0.0 0.00 0.28 0.28 92 1012.0
20260504180350 52 301 0.0 0.0 0.00 0.28 0.28 92 1012.0
20260504175850 52 301 0.0 1.0 0.00 0.28 0.28 92 1012.1
20260504175350 53 301 0.0 1.0 0.00 0.28 0.28 92 1012.0
20260504174850 53 301 0.0 0.0 0.00 0.28 0.28 92 1012.1
20260504174349 53 301 0.0 0.0 0.00 0.28 0.28 92 1012.1
20260504173849 53 301 0.0 0.0 0.00 0.28 0.28 92 1012.2
20260504173349 53 301 0.0 1.0 0.00 0.28 0.28 92 1012.2
20260504172849 53 295 0.0 1.0 0.00 0.28 0.28 92 1012.2
20260504172348 53 295 0.0 1.0 0.00 0.28 0.28 92 1012.2
20260504171848 53 295 0.0 1.0 0.00 0.28 0.28 92 1012.3
20260504171348 53 295 0.0 1.0 0.01 0.28 0.28 92 1012.4
20260504170847 53 286 0.0 1.0 0.01 0.28 0.28 92 1012.4
20260504170347 52 286 0.0 1.0 0.01 0.28 0.28 92 1012.4
20260504160344 52 131 0.0 1.0 0.02 0.27 0.27 91 1012.8
20260504150841 53 323 0.0 0.0 0.04 0.25 0.25 90 1013.1
20260504150341 53 323 0.0 0.0 0.05 0.25 0.25 91 1013.1
20260504140838 52 301 0.0 2.0 0.09 0.21 0.21 89 1013.6
20260504140338 52 299 0.0 1.0 0.08 0.20 0.20 89 1013.7
20260504130334 54 357 1.0 3.0 0.07 0.12 0.12 90 1013.9
20260504110328 56 316 1.0 4.0 0.02 0.02 0.02 84 1013.3
20260504100325 60 315 0.0 4.0 0.00 0.00 0.00 74 1013.0
20260504081819 58 123 0.0 3.0 0.00 0.00 0.00 80 1013.0
20260504081319 57 118 0.0 3.0 0.00 0.00 0.00 81 1012.8
20260504080819 57 136 0.0 1.0 0.00 0.00 0.00 80 1012.5
20260504080318 57 137 0.0 2.0 0.00 0.00 0.00 80 1012.4
20260504070315 57 147 0.0 0.0 0.00 0.00 0.00 78 1011.9
20260504050309 53 279 0.0 0.0 0.00 0.00 0.00 86 1012.2
20260504045808 53 279 0.0 0.0 0.00 0.00 0.00 86 1012.3
20260504045308 53 279 0.0 0.0 0.00 0.00 0.00 85 1012.2
20260504044808 53 279 0.0 0.0 0.00 0.00 0.00 85 1012.2
20260504044308 53 279 0.0 1.0 0.00 0.00 0.00 85 1012.1
20260504043807 53 279 0.0 0.0 0.00 0.00 0.00 85 1012.1
20260504043307 53 279 0.0 1.0 0.00 0.00 0.00 85 1012.0
20260504042807 53 279 0.0 0.0 0.00 0.00 0.00 85 1012.1
20260504042306 53 279 0.0 1.0 0.00 0.00 0.00 84 1012.1
20260504041806 53 279 0.0 0.0 0.00 0.00 0.00 84 1012.3
20260504041306 53 279 0.0 1.0 0.00 0.00 0.00 84 1012.1
20260504040806 53 279 0.0 0.0 0.00 0.00 0.00 85 1012.1
20260504040305 53 279 0.0 1.0 0.00 0.00 0.00 85 1012.1
20260504035805 53 279 0.0 0.0 0.00 0.00 0.00 85 1012.2
20260504035305 53 279 0.0 0.0 0.00 0.00 0.00 85 1012.5